Location: Middlebury
(44.0133°N, 73.1813°W)
Time: 03:12:34
(UTC-04:00)

Envisat - Pass Details

Date: 30 January 2022
Orbit: 764 x 765 km, 98.2° (Epoch: 21 May)

Event Time Altitude Azimuth Distance (km) Brightness Sun altitude
Rises 03:30:16 0° 30° (NNE) 3,240 6.7 -39.9°
Reaches altitude 10° 03:33:27 10° 51° (NE) 2,308 6.1 -39.3°
Maximum altitude 03:36:38 17° 90° (E) 1,885 5.6 -38.8°
Drops below altitude 10° 03:39:49 10° 129° (SE) 2,298 5.8 -38.2°
Sets 03:42:57 0° 150° (SSE) 3,219 6.4 -37.7°
